Regional Weather Roundup
Issued by NWS

Home | Current Version | Previous Version | Graphics & Text | Print | Product List | Glossary On
Versions: 1 2 3 4 5 6 7 8 9 10 11 12 13 14 15 16 17 18 19 20 21 22 23 24 25 26 27 28 29 30 31 32 33 34 35 36 37 38 39 40 41 42 43 44 45 46 47 48 49 50
000
ASUS43 KTOP 300808
RWRKS

WEATHER ROUNDUP FOR KANSAS
NATIONAL WEATHER SERVICE GOODLAND KS
300 AM CDT SAT JUL 30 2016

NOTE:  "FAIR" INDICATES FEW OR NO CLOUDS BELOW 12,000 FEET WITH NO
SIGNIFICANT WEATHER AND/OR OBSTRUCTIONS TO VISIBILITY.

KSZ001>006-013>018-027>032-041>047-300900-
NORTHWEST KANSAS

CITY           SKY/WX    TMP DP  RH WIND       PRES   REMARKS
GOODLAND       PTCLDY    68  61  78 S13       30.03F
HAYS           CLOUDY    68  61  77 E6        30.01F
HILL CITY      PTCLDY    68  66  93 E6        30.03R
RUSSELL        CLOUDY    70  66  87 SE10      30.00F
$$

KSZ061>065-074>080-084>089-300900-
SOUTHWEST KANSAS

CITY           SKY/WX    TMP DP  RH WIND       PRES   REMARKS
DODGE CITY     MOCLDY    70  66  87 S9        30.05S
ELKHART          N/A     65  60  84 N5          N/A
GARDEN CITY    CLOUDY    69  66  90 SE6       30.05F
GREAT BEND     CLOUDY    70  63  78 SE7       30.02S
LIBERAL        CLOUDY    72  63  73 SE9       30.08R
PRATT          CLOUDY    70  65  85 S5        30.03S
$$

KSZ066>073-081>083-090>101-300900-
SOUTHEAST KANSAS

CITY           SKY/WX    TMP DP  RH WIND       PRES   REMARKS
CHANUTE        CLEAR     70  68  93 CALM      29.99S FOG
COFFEYVILLE    CLEAR     71  69  93 CALM      29.98S
HUTCHINSON     PTCLDY    70  68  93 CALM      30.02S
MEDICINE LODGE   N/A     73  68  84 SE3       30.00F
NEWTON         CLOUDY    70  69  97 SE6       30.02F
WICHITA INTL   MOCLDY    73  69  87 S6        30.00F
WICHITA JABRA  CLOUDY    71  69  93 S3        30.01S
WICHITA MCCONL MOCLDY    73  69  89 S1        30.01F
WINFIELD       PTCLDY    74  69  85 CALM      30.00F
$$

KSZ007>012-019>026-033>040-048>060-102>105-300900-
NORTHEAST KANSAS

CITY           SKY/WX    TMP DP  RH WIND       PRES   REMARKS
CONCORDIA      CLOUDY    66  63  90 E3        30.02S
EMPORIA        CLOUDY    69  66  90 CALM      30.01F
LAWRENCE       PTCLDY    66  62  87 CALM      30.00F
MANHATTAN      CLOUDY    68  65  90 CALM      30.01S
MARYSVILLE     CLEAR     64  63  94 E7        30.02S
OLATHE IND     CLEAR     67  63  87 NE3       30.01F
OLATHE EXE     CLEAR     68  61  78 NE5       30.01S
SALINA         CLOUDY    73  67  81 SE6       30.00F
TOPEKA BILLARD PTCLDY    67  65  93 CALM      30.01S
TOPEKA FORBES  CLOUDY    68  64  87 CALM      30.01F
$$




USA.gov is the U.S. government's official web portal to all federal, state and local government web resources and services.